Find Raduga

NORAD ID: 12003 Int'l Des: 1980-081 Owner: GUKOSR Country: SU operational
MEOCIRCULAR

現在のビュー

3D地球を読み込み中...

Radugaについて

説明を読み込み中...

次回通過

Passes for default location (London). Set your location on the main map for personalized predictions.

高度履歴

Loading altitude history...

軌道要素

1 12003U 80081A 26150.13941833 -.00000234 00000-0 00000+0 0 9998
2 12003 5.9920 289.3850 0010867 318.4272 13.2761 1.00312417123125
Epoch: May 30, 2026 • Age: 7 hours

現在のステータス

高度 35797.3 km
速度 3.07 km/s
衛星直下点 5.90°N, 36.69°W
打ち上げ日 Oct 5, 1980
運用期間 45.6 years
タイプ other

技術仕様

分類 Payload
質量 1965.00 kg
乾燥質量 1800.00 kg
総質量 1965.00 kg
長さ 5.50 m
直径 2.50 m
スパン 9.50 m
形状 Step Cyl + 2 Pan
製造者 NPOPM
バスタイプ Raduga
フェーズステータス In Orbit
所有者/国 GUKOSR/SU

Most Searched